TimeAST,TemperatureF,Dew PointF,Humidity,Sea Level PressureIn,VisibilityMPH,Wind Direction,Wind SpeedMPH,Gust SpeedMPH,PrecipitationIn,Events,Conditions,WindDirDegrees,DateUTC
12:00 AM,77.0,68.0,74,30.09,6.2,East,10.4,-,N/A,,Partly Cloudy,80,2013-01-30 04:00:00
1:00 AM,75.2,68.0,78,30.06,6.2,East,8.1,-,N/A,,Partly Cloudy,90,2013-01-30 05:00:00
2:00 AM,76,67,68,30.06,25,East,11.5,,,,Partly Cloudy,90,2013-01-30 06:00:00
2:00 AM,75.2,68.0,78,30.04,6.2,East,10.4,-,N/A,,Scattered Clouds,80,2013-01-30 06:00:00
3:00 AM,75.2,68.0,78,30.04,6.2,East,11.5,-,N/A,Rain,Light Rain Showers,100,2013-01-30 07:00:00
4:00 AM,75.2,68.0,78,30.04,6.2,East,10.4,-,N/A,Rain,Light Rain Showers,90,2013-01-30 08:00:00
5:00 AM,76,67,68,30.04,25,East,13.8,,,,Partly Cloudy,80,2013-01-30 09:00:00
5:00 AM,75.2,68.0,78,30.04,6.2,ENE,13.8,-,N/A,,Partly Cloudy,70,2013-01-30 09:00:00
6:00 AM,75.2,68.0,78,30.04,6.2,East,13.8,-,N/A,,Partly Cloudy,80,2013-01-30 10:00:00
7:00 AM,75.2,68.0,78,30.06,6.2,East,12.7,-,N/A,,Mostly Cloudy,80,2013-01-30 11:00:00
8:00 AM,77,67,65,30.08,22,East,11.5,,,,Partly Cloudy,80,2013-01-30 12:00:00
8:00 AM,77.0,68.0,74,30.06,6.2,ENE,11.5,-,N/A,,Scattered Clouds,70,2013-01-30 12:00:00
9:00 AM,78.8,68.0,69,30.09,6.2,East,12.7,-,N/A,,Partly Cloudy,80,2013-01-30 13:00:00
10:00 AM,82.4,68.0,62,30.09,6.2,ENE,13.8,-,N/A,,Scattered Clouds,70,2013-01-30 14:00:00
11:00 AM,82,68,53,30.11,31,East,13.8,,,,Partly Cloudy,80,2013-01-30 15:00:00
11:00 AM,82.4,68.0,62,30.09,6.2,East,15.0,-,N/A,,Scattered Clouds,80,2013-01-30 15:00:00
12:00 PM,82.4,66.2,58,30.06,6.2,East,16.1,-,N/A,,Scattered Clouds,80,2013-01-30 16:00:00
1:00 PM,82.4,68.0,62,30.06,6.2,East,16.1,-,N/A,,Scattered Clouds,80,2013-01-30 17:00:00
2:00 PM,81,68,56,30.04,19,ENE,16.1,,,,,60,2013-01-30 18:00:00
2:00 PM,80.6,68.0,65,30.04,6.2,ENE,16.1,-,N/A,,Scattered Clouds,60,2013-01-30 18:00:00
3:00 PM,80.6,68.0,65,30.01,6.2,ENE,13.8,-,N/A,,Scattered Clouds,60,2013-01-30 19:00:00
3:26 PM,78.8,69.8,74,30.01,3.7,ENE,15.0,-,N/A,Rain,Rain Showers,60,2013-01-30 19:26:00
4:00 PM,77.0,71.6,83,10.16,6.2,ENE,10.4,-,N/A,,Scattered Clouds,70,2013-01-30 20:00:00
5:00 PM,77,70,74,30.03,22,ESE,10.4,,,Rain,Light Rain Showers,110,2013-01-30 21:00:00
5:00 PM,77.0,69.8,78,30.01,6.2,East,10.4,-,N/A,,Partly Cloudy,90,2013-01-30 21:00:00
6:00 PM,77.0,69.8,78,30.04,6.2,East,11.5,-,N/A,,Scattered Clouds,80,2013-01-30 22:00:00
7:00 PM,75.2,69.8,83,30.04,6.2,East,8.1,-,N/A,,Scattered Clouds,80,2013-01-30 23:00:00
8:00 PM,75,70,81,30.05,16,East,9.2,,,,Partly Cloudy,100,2013-01-31 00:00:00
8:00 PM,75.2,69.8,83,30.04,6.2,East,9.2,-,N/A,,Partly Cloudy,80,2013-01-31 00:00:00
9:00 PM,75.2,69.8,83,30.04,6.2,East,10.4,-,N/A,,Partly Cloudy,90,2013-01-31 01:00:00
10:00 PM,77.0,69.8,78,30.06,6.2,East,11.5,-,N/A,,Scattered Clouds,100,2013-01-31 02:00:00
11:00 PM,74,70,82,30.07,6,ESE,8.1,,,Rain,Light Rain Showers,120,2013-01-31 03:00:00
11:00 PM,75.2,69.8,83,30.06,6.2,ESE,9.2,-,N/A,Rain,Light Rain Showers,120,2013-01-31 03:00:00